Regional Weather Roundup
Issued by NWS

Home | Current Version | Previous Version | Text Only | Print | Product List | Glossary Off
Versions: 1 2 3 4 5 6 7 8 9 10 11 12 13 14 15 16 17 18 19 20 21 22 23 24 25 26 27 28 29 30 31 32 33 34 35 36 37 38 39 40 41 42 43 44 45 46 47 48 49 50

000
ASUS43 KDTX 100110
RWRMI
MICHIGAN HOURLY REGIONAL WEATHER ROUNDUP
NATIONAL WEATHER SERVICE DETROIT/PONTIAC MI
900 PM EDT WED JUL 09 2014

NOTE: "FAIR" INDICATES FEW OR NO CLOUDS BELOW 12,000 FEET WITH NO
SIGNIFICANT WEATHER AND/OR OBSTRUCTION TO VISIBILITY.

MIZ047>049-052>055-059>063-066>070-074>076-081>083-100200-
SOUTHEAST LOWER MICHIGAN

CITY           SKY/WX    TMP DP  RH WIND       PRES   REMARKS
ADRIAN         CLEAR     70  56  61 N5        29.98R
ALMA           CLOUDY    66  51  58 NW5       29.99R
ANN ARBOR      CLEAR     70  54  56 N6        29.97R
BAD AXE        MOCLDY    62  55  77 SE3       29.99R
DETROIT CITY   PTCLDY    74  53  48 N6        29.97R
DETROIT        PTCLDY    70  55  59 NW7       29.97R
FLINT          CLEAR     68  53  58 W6        29.98R
GROSSE ILE     CLEAR     72  57  60 E6        29.96R
HILLSDALE      CLEAR     68  58  71 CALM      29.99S
HOWELL         PTCLDY    65  58  76 CALM      29.99R

CITY           SKY/WX    TMP DP  RH WIND       PRES   REMARKS
JACKSON        CLEAR     66  56  70 W5        29.99R
LAMBERTVILLE   PTCLDY    72  55  56 N5        29.98R
LANSING        MOCLDY    68  55  63 W5        29.99R
LAPEER         NOT AVBL
MASON          MOCLDY    67  56  67 W3        29.99R
MONROE         CLEAR     72  57  60 CALM      29.95R
MT. CLEMENS    CLEAR     69  54  59 NW6       29.96R
PONTIAC        PTCLDY    68  52  56 NW6       29.97R
PORT HOPE        N/A     59  54  83 CALM      29.97S
PORT HURON     CLEAR     63  57  82 CALM      29.97R
TRI CITIES     MOCLDY    68  53  58 NW6       29.98R
YPSILANTI      CLEAR     72  56  57 N6        29.97R
$$
MIZ043>046-050>051-056>058-064>065-071>073-077>080-100200-
SOUTHWEST LOWER MICHIGAN

CITY           SKY/WX    TMP DP  RH WIND       PRES   REMARKS
BATTLE CREEK   CLEAR     68  55  63 NW5       30.00R
BENTON HARBOR  CLEAR     66  57  72 CALM      30.01R
BIG RAPIDS     CLOUDY    64  51  63 CALM      30.00R
COLDWATER      CLEAR     68  57  68 NW6       29.99S
HOLLAND        CLEAR     67  54  63 W5        30.02R
GRAND RAPIDS   PTCLDY    69  53  56 NW9       30.00R
KALAMAZOO      CLEAR     68  54  60 NW8       30.00R
MARSHALL       CLEAR     66  55  66 NW3       29.99R
MUSKEGON       PTCLDY    66  52  60 NW9       30.01R
$$
MIZ016>042-100200-
NORTHERN LOWER MICHIGAN

CITY           SKY/WX    TMP DP  RH WIND       PRES   REMARKS
ALPENA         CLEAR     60  52  74 CALM      29.98R
BEAVER ISLAND  CLEAR     59  50  74 W3        30.01R
BELLAIRE       CLOUDY    61  52  71 CALM      30.00R
CADILLAC       CLOUDY    61  51  71 NW7       30.01R
CHARLEVOIX     CLEAR     58  53  84 W9        30.03S
FRANKFORT      MOCLDY    59  52  77 W5        30.02R
GAYLORD        MOCLDY    59  49  69 VRB5      30.01R
GRAYLING       CLEAR     59  47  64 NW6       30.01R
HARBOR SPRINGS CLEAR     58  54  84 CALM      29.99S
HOUGHTON LAKE  CLOUDY    62  51  67 NW5       30.00R
MANISTEE       CLEAR     59  52  77 NW3       30.03R
OSCODA         PTCLDY    61  56  81 CALM      29.97S
PELLSTON       CLEAR     60  52  74 W6        30.00R
TRAVERSE CITY  MOCLDY    63  51  65 NW6       30.00R
$$
MIZ007>008-015-100200-
EASTERN UPPER MICHIGAN

CITY           SKY/WX    TMP DP  RH WIND       PRES   REMARKS
KINROSS        PTCLDY    55  50  82 N8        29.99R
MACKINAC ISLAN CLEAR     58  52  79 W6        29.99R
NEWBERRY       CLEAR     56  45  65 NW5       29.99S
S. S. MARIE    PTCLDY    53  44  71 NW9       29.99R
$$
MIZ004>006-011>014-085-100200-
CENTRAL UPPER MICHIGAN

CITY           SKY/WX    TMP DP  RH WIND       PRES   REMARKS
MANISTIQUE     CLEAR     58  46  63 NW3       30.00S
ESCANABA       PTCLDY    63  46  55 NE3       30.01R
MENOMINEE      PTCLDY    63  54  72 CALM      30.00S
SAWYER-GWINN   CLEAR     61  46  59 CALM      30.01S
$$
MIZ001>003-009>011-084-100200-
WESTERN UPPER MICHIGAN

CITY           SKY/WX    TMP DP  RH WIND       PRES   REMARKS
IRON MOUNTAIN  CLEAR     64  47  53 NW6       30.00S
HOUGHTON       CLEAR     61  45  55 W8        29.99S
COPPER HARBOR    N/A     54  49  83 N8        29.99R
$$

ABBREVIATIONS USED IN REMARKS
   TC - TEMPERATURE IN CELSIUS
  WCI - WIND CHILL INDEX
   HX - HEAT INDEX
  VSB - VISIBILITY




USA.gov is the U.S. government's official web portal to all federal, state and local government web resources and services.